St. Johnsbury, VT

5:57 AM EDT on August 22, 2017 (GMT -0400)
St. Johnsbury

Weather History for K1V4 - November, 2013

Change the Weather History Date:

Tuesday, November 5, 2013

  Actual Average Record
Temperature  
Mean Temperature 34 °F 40 °F  
Max Temperature 46 °F 49 °F 71 °F (2015)
Min Temperature 21 °F 31 °F 16 °F (1951)
Degree Days  
Heating Degree Days 31 25  
Month to date heating degree days 129 120  
Since 1 July heating degree days 948 907  
Cooling Degree Days 0 0  
Month to date cooling degree days 0  
Year to date cooling degree days 433  
Moisture  
Dew Point 21 °F    
Average Humidity 61    
Maximum Humidity 84    
Minimum Humidity 38    
Precipitation  
Precipitation 0.00 in 0.11 in 2.17 in (1982)
Month to date precipitation 0.53 0.61  
Year to date precipitation 31.39 33.63  
Sea Level Pressure  
Sea Level Pressure 30.59 in    
Wind  
Wind Speed - (North)    
Max Wind Speed -    
Max Gust Speed -    
T = Trace of Precipitation, MM = Missing Value Source: NWS Daily Summary

Daily Weather History Graph

Daily Weather History Graph

Search for Another Location

Airport or City:

Trip Planner

Search our weather history database for the weather conditions in past years. The results will help you decide how hot, cold, wet, or windy it might be!

Date:

Astronomy

Nov. 05, 2013 Rise Set
Actual Time 6:31 AM EST 4:31 PM EST
Civil Twilight 6:00 AM EST 5:02 PM EST
Nautical Twilight 5:25 AM EST 5:36 PM EST
Astronomical Twilight 4:51 AM EST 6:10 PM EST
Moon 8:46 AM EST (11/5) 6:26 PM EST (11/5)
Length of Visible Light 11h 01m
Length of Day
10h 00m
Waxing Crescent, 6% of the Moon is Illuminated
Nov 5
Waxing Crescent
Nov 10
First Quarter
Nov 17
Full
Nov 25
Last Quarter
Dec 2
New

Hourly Weather History & Observations

Time (EST) Temp. Dew Point Humidity Pressure Visibility Wind Dir Wind Speed Gust Speed Precip Events Conditions
12:54 AM 21.9 °F 17.1 °F 82% 30.70 in - North - - N/A   Unknown
1:54 AM 21.9 °F 18.0 °F 85% 30.69 in - North - - N/A   Unknown
2:54 AM 21.9 °F 18.0 °F 85% 30.68 in - North - - N/A   Unknown
3:54 AM 21.9 °F 17.1 °F 82% 30.68 in - North - - N/A   Unknown
4:54 AM 21.9 °F 18.0 °F 85% 30.66 in - North - - N/A   Unknown
5:54 AM 21.9 °F 18.0 °F 85% 30.68 in - North - - N/A   Unknown
6:54 AM 21.9 °F 18.0 °F 85% 30.69 in - North - - N/A   Unknown
7:54 AM 24.1 °F 19.0 °F 81% 30.68 in - North - - N/A   Unknown
8:54 AM 28.0 °F 19.9 °F 72% 30.66 in - North - - N/A   Unknown
9:54 AM 36.0 °F 19.0 °F 50% 30.64 in - North - - N/A   Unknown
10:54 AM 39.9 °F 19.0 °F 43% 30.61 in - North - - N/A   Unknown
11:54 AM 43.0 °F 19.9 °F 40% 30.58 in - North - - N/A   Unknown
12:54 PM 44.1 °F 21.9 °F 42% 30.56 in - North - - N/A   Unknown
1:54 PM 45.0 °F 21.9 °F 40% 30.53 in - North - - N/A   Unknown
2:54 PM 46.0 °F 23.0 °F 40% 30.53 in - North - - N/A   Unknown
3:54 PM 45.0 °F 24.1 °F 44% 30.52 in - North - - N/A   Unknown
4:54 PM 43.0 °F 25.0 °F 49% 30.51 in - North - - N/A   Unknown
5:54 PM 37.9 °F 25.0 °F 60% 30.52 in - North - - N/A   Unknown
6:54 PM 33.1 °F 25.0 °F 72% 30.53 in - North - - N/A   Unknown
7:54 PM 30.9 °F 24.1 °F 76% 30.52 in - North - - N/A   Unknown
8:54 PM 30.9 °F 24.1 °F 76% 30.52 in - North - - N/A   Unknown
9:54 PM 32.0 °F 25.0 °F 75% 30.50 in - North - - N/A   Unknown
10:54 PM 32.0 °F 26.1 °F 79% 30.48 in - North - - N/A   Unknown
11:54 PM 33.1 °F 26.1 °F 75% 30.46 in - North - - N/A   Unknown